sat.trackr.live / text

‹ back to catalog

KUIPER-00117

NORAD 65949 · 2025-228C

PAYLOAD ACTIVE UNKNOWN

§ Identity

Operator
Country
US
Launch date
2025-10-14
Launch site
AFETR
Launch vehicle
Mass (kg)
RCS (m²)

External: N2YO · Heavens-Above · Gunter

§ Orbital elements

Epoch: 2026-05-24T22:32:29.794272Z

Period
97.30 min
Inclination
51.8990°
Eccentricity
0.0000809
Mean motion
14.79938127 rev/d
Perigee alt
629.0 km
Apogee alt
630.1 km
Semi-major
7,007.7 km
B*
4.6782e-4
RAAN
20.9071°
Arg perigee
103.9474°
Mean anomaly
256.1578°
Rev number
3,455

§ Raw data

KUIPER-001171 65949U 25228C   26144.93923373  .00003347  00000+0  46782-3 0  99942 65949  51.8990  20.9071 0000809 103.9474 256.1578 14.79938127 34553

JSON: /api/v1/satellites/65949 · /tle

For live sub-satellite position, see the globe view (requires WebGL).

§ Visibility from observer

Set your observer location to see the next 7 days of passes ≥ 10°. The values pass through the URL so the page stays shareable.

No JS? Fill the form by hand. The geolocation button needs JavaScript.